Tunica, MS

6:57 PM CDT on September 29, 2016 (GMT -0500)
Tunica

Weather History for KUTA - May, 2013

Change the Weather History Date:

Wednesday, May 8, 2013

  Actual Average (KMEM) Record (KMEM)
Temperature  
Mean Temperature 66 °F 70 °F  
Max Temperature 80 °F 79 °F 93 °F (1952)
Min Temperature 53 °F 60 °F 42 °F (1885)
Degree Days  
Heating Degree Days 0 1  
Month to date heating degree days 9  
Since 1 July heating degree days 2954  
Cooling Degree Days 2 5  
Month to date cooling degree days 37  
Year to date cooling degree days 132  
Growing Degree Days 16 (Base 50)    
Moisture  
Dew Point 57 °F    
Average Humidity 73    
Maximum Humidity 100    
Minimum Humidity 42    
Precipitation  
Precipitation 0.00 in 0.19 in 1.76 in (1919)
Month to date precipitation 1.51  
Year to date precipitation 20.54  
Snow  
Snow 0.00 in 0.00 in - ()
Month to date snowfall 0.0  
Since 1 July snowfall 3.8  
Snow Depth -    
Sea Level Pressure  
Sea Level Pressure 30.05 in    
Wind  
Wind Speed 2 mph (South)    
Max Wind Speed 8 mph    
Max Gust Speed -    
Visibility 7 miles    
Events Fog    
T = Trace of Precipitation, MM = Missing Value Source: NWS Daily Summary

Daily Weather History Graph

Daily Weather History Graph

Search for Another Location

Airport or City:

Trip Planner

Search our weather history database for the weather conditions in past years. The results will help you decide how hot, cold, wet, or windy it might be!

Date:

Astronomy

May. 08, 2013 Rise Set
Actual Time 6:04 AM CDT 7:52 PM CDT
Civil Twilight 5:36 AM CDT 8:19 PM CDT
Nautical Twilight 5:03 AM CDT 8:52 PM CDT
Astronomical Twilight 4:28 AM CDT 9:28 PM CDT
Moon 5:09 AM CDT (5/8) 6:52 PM CDT (5/8)
Length of Visible Light 14h 43m
Length of Day
13h 48m
Waning Crescent, 2% of the Moon is Illuminated
May 8
Waning Crescent
May 9
New
May 17
First Quarter
May 24
Full
May 31
Last Quarter

Hourly Weather History & Observations

Time (CDT) Temp. Heat Index Dew Point Humidity Pressure Visibility Wind Dir Wind Speed Gust Speed Precip Events Conditions
12:15 AM 59.0 °F - 57.2 °F 94% 30.03 in 2.0 mi Calm Calm - N/A   Clear
12:35 AM 57.2 °F - 55.4 °F 94% 30.03 in 0.5 mi Calm Calm - N/A Fog Fog
12:55 AM 59.0 °F - 57.2 °F 94% 30.03 in 0.5 mi Calm Calm - N/A Fog Fog
1:15 AM 57.2 °F - 55.4 °F 94% 30.03 in 0.5 mi Calm Calm - N/A Fog Fog
1:35 AM 59.0 °F - 57.2 °F 94% 30.03 in 0.8 mi Calm Calm - N/A   Mist
1:55 AM 55.4 °F - 55.4 °F 100% 30.02 in 1.2 mi Calm Calm - N/A   Mist
2:15 AM 59.0 °F - 57.2 °F 94% 30.02 in 0.5 mi Calm Calm - N/A Fog Fog
2:35 AM 57.2 °F - 55.4 °F 94% 30.02 in 10.0 mi Calm Calm - N/A   Clear
2:55 AM 57.2 °F - 55.4 °F 94% 30.03 in 0.8 mi Calm Calm - N/A   Mist
3:15 AM 57.2 °F - 55.4 °F 94% 30.03 in 0.5 mi Calm Calm - N/A Fog Fog
3:35 AM 57.2 °F - 55.4 °F 94% 30.03 in 0.2 mi Calm Calm - N/A Fog Fog
3:55 AM 53.6 °F - 53.6 °F 100% 30.03 in 0.2 mi Calm Calm - N/A Fog Fog
4:15 AM 55.4 °F - 55.4 °F 100% 30.03 in 0.8 mi Calm Calm - N/A   Mist
4:35 AM 55.4 °F - 55.4 °F 100% 30.03 in 0.2 mi Calm Calm - N/A Fog Fog
4:55 AM 55.4 °F - 53.6 °F 94% 30.03 in 1.2 mi Calm Calm - N/A   Mist
5:15 AM 53.6 °F - 53.6 °F 100% 30.04 in 0.2 mi Calm Calm - N/A Fog Fog
5:55 AM 53.6 °F - 53.6 °F 100% 30.04 in 0.2 mi Calm Calm - N/A Fog Fog
6:15 AM 53.6 °F - 53.6 °F 100% 30.05 in 0.2 mi ESE 3.5 mph - N/A Fog Fog
6:35 AM 55.4 °F - 53.6 °F 94% 30.05 in 0.2 mi Calm Calm - N/A Fog Fog
6:55 AM 55.4 °F - 53.6 °F 94% 30.06 in 0.8 mi Calm Calm - N/A   Mist
7:15 AM 57.2 °F - 55.4 °F 94% 30.06 in 4.0 mi Calm Calm - N/A   Clear
7:35 AM 59.0 °F - 59.0 °F 100% 30.07 in 10.0 mi Calm Calm - N/A   Clear
7:55 AM 60.8 °F - 59.0 °F 94% 30.07 in 10.0 mi Calm Calm - N/A   Clear
8:15 AM 62.6 °F - 60.8 °F 94% 30.08 in 10.0 mi Calm Calm - N/A   Clear
8:35 AM 62.6 °F - 62.6 °F 100% 30.08 in 10.0 mi Calm Calm - N/A   Clear
8:55 AM 64.4 °F - 62.6 °F 94% 30.08 in 10.0 mi Calm Calm - N/A   Clear
9:15 AM 66.2 °F - 64.4 °F 94% 30.10 in 10.0 mi Calm Calm - N/A   Clear
9:35 AM 69.8 °F - 62.6 °F 78% 30.10 in 10.0 mi Calm Calm - N/A   Clear
9:55 AM 71.6 °F - 60.8 °F 69% 30.10 in 10.0 mi Calm Calm - N/A   Clear
10:15 AM 71.6 °F - 60.8 °F 69% 30.10 in 10.0 mi SSW 3.5 mph - N/A   Clear
10:35 AM 73.4 °F - 59.0 °F 61% 30.10 in 10.0 mi Calm Calm - N/A   Clear
10:55 AM 73.4 °F - 59.0 °F 61% 30.10 in 10.0 mi SSW 4.6 mph - N/A   Clear
11:15 AM 73.4 °F - 59.0 °F 61% 30.11 in 10.0 mi SSE 3.5 mph - N/A   Clear
11:35 AM 75.2 °F - 59.0 °F 57% 30.11 in 10.0 mi South 5.8 mph - N/A   Clear
11:55 AM 75.2 °F - 59.0 °F 57% 30.11 in 10.0 mi SSW 4.6 mph - N/A   Clear
12:15 PM 75.2 °F - 59.0 °F 57% 30.11 in 10.0 mi SW 5.8 mph - N/A   Clear
12:35 PM 77.0 °F - 59.0 °F 54% 30.10 in 10.0 mi SSW 8.1 mph - N/A   Clear
12:55 PM 77.0 °F - 55.4 °F 47% 30.09 in 10.0 mi SSW 4.6 mph - N/A   Clear
1:15 PM 77.0 °F - 57.2 °F 50% 30.09 in 10.0 mi South 5.8 mph - N/A   Clear
1:35 PM 77.0 °F - 53.6 °F 44% 30.09 in 10.0 mi SSE 3.5 mph - N/A   Clear
1:55 PM 78.8 °F - 55.4 °F 44% 30.08 in 10.0 mi South 5.8 mph - N/A   Scattered Clouds
2:15 PM 78.8 °F - 55.4 °F 44% 30.08 in 10.0 mi SE 3.5 mph - N/A   Clear
2:35 PM 78.8 °F - 57.2 °F 47% 30.07 in 10.0 mi South 3.5 mph - N/A   Clear
2:55 PM 78.8 °F - 55.4 °F 44% 30.06 in 10.0 mi SSW 3.5 mph - N/A   Clear
3:15 PM 78.8 °F - 55.4 °F 44% 30.06 in 10.0 mi SSE 3.5 mph - N/A   Clear
3:35 PM 78.8 °F - 53.6 °F 42% 30.05 in 10.0 mi Calm Calm - N/A   Clear
3:55 PM 80.6 °F 80.5 °F 55.4 °F 42% 30.05 in 10.0 mi SW 6.9 mph - N/A   Clear
4:15 PM 78.8 °F - 53.6 °F 42% 30.05 in 10.0 mi SW 4.6 mph - N/A   Clear
4:35 PM 78.8 °F - 55.4 °F 44% 30.04 in 10.0 mi SW 3.5 mph - N/A   Clear
4:55 PM 80.6 °F 80.5 °F 55.4 °F 42% 30.04 in 10.0 mi WSW 3.5 mph - N/A   Clear
5:15 PM 78.8 °F - 55.4 °F 44% 30.05 in 10.0 mi SSW 5.8 mph - N/A   Clear
5:35 PM 78.8 °F - 55.4 °F 44% 30.04 in 10.0 mi SW 5.8 mph - N/A   Clear
5:55 PM 78.8 °F - 55.4 °F 44% 30.04 in 10.0 mi SSW 5.8 mph - N/A   Clear
6:15 PM 78.8 °F - 55.4 °F 44% 30.03 in 10.0 mi South 4.6 mph - N/A   Clear
6:35 PM 78.8 °F - 59.0 °F 51% 30.03 in 10.0 mi South 3.5 mph - N/A   Clear
6:55 PM 77.0 °F - 57.2 °F 50% 30.03 in 10.0 mi SSW 5.8 mph - N/A   Clear
7:15 PM 75.2 °F - 59.0 °F 57% 30.03 in 10.0 mi SSW 4.6 mph - N/A   Clear
7:35 PM 75.2 °F - 57.2 °F 53% 30.03 in 10.0 mi South 4.6 mph - N/A   Clear
7:55 PM 71.6 °F - 60.8 °F 69% 30.03 in 10.0 mi South 4.6 mph - N/A   Clear
8:15 PM 69.8 °F - 62.6 °F 78% 30.03 in 10.0 mi South 4.6 mph - N/A   Clear
8:35 PM 69.8 °F - 62.6 °F 78% 30.03 in 10.0 mi South 5.8 mph - N/A   Clear
8:55 PM 68.0 °F - 62.6 °F 83% 30.03 in 10.0 mi SSE 4.6 mph - N/A   Clear
9:15 PM 69.8 °F - 60.8 °F 73% 30.03 in 10.0 mi SSE 5.8 mph - N/A   Clear
9:35 PM 68.0 °F - 60.8 °F 78% 30.03 in 10.0 mi SSE 5.8 mph - N/A   Clear
9:55 PM 66.2 °F - 60.8 °F 83% 30.04 in 10.0 mi SE 5.8 mph - N/A   Clear
10:15 PM 68.0 °F - 59.0 °F 73% 30.04 in 10.0 mi SSE 6.9 mph - N/A   Clear
10:35 PM 66.2 °F - 60.8 °F 83% 30.04 in 10.0 mi SSE 5.8 mph - N/A   Clear
11:55 PM 62.6 °F - 59.0 °F 88% 30.03 in 10.0 mi South 8.1 mph - N/A   Clear